Other Surface Observations
Issued by NWS

Current Version | Previous Version | Text Only | Print | Product List | Glossary On
Versions: 1 2 3 4 5 6 7 8 9 10 11 12 13 14 15 16 17 18 19 20 21 22 23 24 25 26 27 28 29 30 31 32 33 34 35 36 37 38 39 40 41 42 43 44 45 46 47 48 49 50
000
SXUS52 KTAE 010718
OSOTAE
OSOTAE
North Florida/South Alabama/Southwest Georgia Weather Roundup
National Weather Service Tallahassee Florida
200 AM EST SUN FEB 01 2015

Note: "fair" indicates few or no clouds below 12,000 feet with no
significant weather and/or obstructions to visibility.

!FLZ017-115-028-034-025-010800
...North Florida...

CITY           SKY/WX    TMP DP  RH WIND       PRES   REMARKS
TALLAHASSEE    CLEAR     47  38  71 E9        30.22F WCI  43
APALACHICOLA   PTCLDY    61  51  70 SE14G21   30.20F
PERRY          CLEAR     47  41  80 E6        30.25F WCI  44
CROSS CITY       N/A     46  41  82 E3        30.25F
JACKSONVILLE   PTCLDY    40  39  97 CALM      30.26F
$$

!FLZ112-006-005-002-011-010800
...Florida Panhandle...

CITY           SKY/WX    TMP DP  RH WIND       PRES   REMARKS
MARIANNA       PTCLDY    43  37  79 CALM      30.22S
BONIFAY        FAIR      43  36  76 CALM      30.23S
PANAMA CITY NW FAIR      48  36  63 NE5       30.19F
TYNDALL AFB    CLOUDY    52  41  68 E7        30.19F
TYND DRONE APT PTSUNNY   52  43  72 E8        30.17F
DE FUNIAK SPR  FAIR      46  33  59 E6        30.19F WCI  43
EGLIN AFB      MOCLDY    50  39  66 E8        30.18F
DESTIN         MOCLDY    54  43  66 E8        30.18F
HURLBURT       PTCLDY    50  41  71 NE2       30.17F
CRESTVIEW      PTCLDY    39  35  86 CALM      30.20F
PENSACOLA      MOCLDY    50  44  80 E3        30.18S
$$

!ALZ063-066-010800
...South Alabama...

CITY           SKY/WX    TMP DP  RH WIND       PRES   REMARKS
DOTHAN         CLOUDY    46  31  55 E6        30.24F WCI  43
OZARK CAIRNS   MOCLDY    42  31  63 E7        30.21F WCI  38
FT RUCKER HELI MOCLDY    40  33  76 CALM      30.21S
RUCKER HELI 3  FAIR      44  31  60 E6        30.23S WCI  41
RUCKER HELI 2  FAIR      44  30  57 E3        30.22R
FLORALA APT    MOCLDY    46  32  58 VRB3      30.20F
ANDALUSIA      MOCLDY    48  32  53 SE5       30.18F
TROY           CLOUDY    47  28  47 SE3       30.21F
EUFALA         FAIR      46  32  58 SE3       30.22F
MOBILE           N/A     45  41  86 NE3       30.17F
$$

!GAZ120>161-010800
...Southwest and South Central Georgia...

CITY           SKY/WX    TMP DP  RH WIND       PRES   REMARKS
THOMASVILLE    FAIR      45  39  81 E5        30.25F WCI  42
BAINBRIDGE     PTCLDY    45  41  87 E3        30.24S
MOODY AFB      PTCLDY    42  36  78 E5        30.26F WCI  39
VALDOSTA       CLEAR     43  37  79 CALM      30.26F
MOULTRIE       PTCLDY    45  37  76 E3        30.26S
BLAKELY        PTCLDY    43  36  75 E3        30.24F
ALBANY         MOCLDY    43  36  76 E5        30.27F WCI  40
TIFTON         FAIR      43  34  70 CALM      30.26F
FITZGERALD     FAIR      42  33  70 CALM      30.30S
CORDELE        FAIR      44  34  68 CALM      30.28S
AMERICUS       FAIR      41  32  70 CALM      30.27F
HOMERVILLE     FAIR      43  39  87 CALM      30.27F
$$

!GMZ750-755-770-775-010800
...Coastal and Buoy Obs...

STATION/POSITION TIME  TEMP    WIND        PRES    VSBY  WAVE
                       AIR SEA DIR/SP/G                  HT/PER
                 (UTC) (F)     (DEG/KT/KT) (MB)    (MI)  (FT/S)
KEATON BEACH     0700   48      80/ 11/ 13 1023.9F
CEDAR KEY        0700   52      80/ 11/ 12 1024.4F
C TOWER          0700   60     120/ 23/ 26 1022.2F
APALACHICOLA BUO 0700   65 67  130/ 23/ 27 1021.7F         4/ 4
PANAMA CITY BUOY 0631   67 69  140/ 17/ 21 1021.3F         5/ 6
MOBILE BUOY      0631   66 69  150/ 17/ 19 1020.8F         5/ 6
ORANGE BCH AL BU 0700   63 62  140/ 14/ 16 1020.7F         4/ 5
$$



USA.gov is the U.S. government's official web portal to all federal, state and local government web resources and services.